| time (UTC) | temp C | wind direction | speed KPH | gust KPH | rain 1hr cm | rain 24hr cm | rain mn cm | humidity % | barometer mb |
| 20260903082015 | 20 | 84 | 1.6 | 4.8 | 0.00 | 0.00 | 0.00 | 92 | 1009.1 |
| 20260903081515 | 20 | 77 | 1.6 | 3.2 | 0.00 | 0.00 | 0.00 | 92 | 1009.0 |
| 20260903081014 | 20 | 94 | 0.0 | 3.2 | 0.00 | 0.00 | 0.00 | 91 | 1008.9 |
| 20260903080513 | 20 | 84 | 0.0 | 4.8 | 0.00 | 0.00 | 0.00 | 90 | 1009.0 |
| 20260903080135 | 20 | 91 | 1.6 | 4.8 | 0.00 | 0.00 | 0.00 | 90 | 1009.0 |
| 20260903075514 | 20 | 98 | 1.6 | 6.4 | 0.00 | 0.00 | 0.00 | 89 | 1009.0 |
| 20260903075013 | 20 | 113 | 1.6 | 6.4 | 0.00 | 0.00 | 0.00 | 90 | 1009.1 |
| 20260903074512 | 20 | 91 | 1.6 | 4.8 | 0.00 | 0.00 | 0.00 | 89 | 1009.0 |
| 20260903074011 | 20 | 95 | 0.0 | 4.8 | 0.00 | 0.00 | 0.00 | 88 | 1009.1 |
| 20260903073511 | 20 | 82 | 3.2 | 4.8 | 0.00 | 0.00 | 0.00 | 89 | 1009.2 |
| 20260903073011 | 20 | 117 | 1.6 | 3.2 | 0.00 | 0.00 | 0.00 | 89 | 1009.4 |
| 20260903072510 | 20 | 93 | 0.0 | 3.2 | 0.00 | 0.00 | 0.00 | 88 | 1009.3 |
| 20260903072010 | 20 | 85 | 0.0 | 4.8 | 0.00 | 0.00 | 0.00 | 88 | 1009.3 |
| 20260903071510 | 20 | 96 | 1.6 | 6.4 | 0.00 | 0.00 | 0.00 | 88 | 1009.3 |
| 20260903071009 | 20 | 101 | 3.2 | 6.4 | 0.00 | 0.00 | 0.00 | 88 | 1009.3 |
| 20260903070508 | 20 | 86 | 0.0 | 4.8 | 0.00 | 0.00 | 0.00 | 87 | 1009.4 |
| 20260903070007 | 20 | 99 | 1.6 | 4.8 | 0.00 | 0.00 | 0.00 | 87 | 1009.4 |
| 20260903065507 | 20 | 109 | 0.0 | 3.2 | 0.00 | 0.00 | 0.00 | 87 | 1009.5 |
| 20260903065006 | 20 | 84 | 0.0 | 4.8 | 0.00 | 0.00 | 0.00 | 86 | 1009.5 |
| 20260903064504 | 20 | 73 | 0.0 | 4.8 | 0.00 | 0.00 | 0.00 | 86 | 1009.6 |
| 20260903064007 | 20 | 86 | 1.6 | 4.8 | 0.00 | 0.00 | 0.00 | 85 | 1009.6 |
| 20260903063503 | 21 | 107 | 1.6 | 4.8 | 0.00 | 0.00 | 0.00 | 84 | 1009.5 |
| 20260903063002 | 21 | 101 | 1.6 | 6.4 | 0.00 | 0.00 | 0.00 | 84 | 1009.5 |
| 20260903062502 | 21 | 47 | 0.0 | 6.4 | 0.00 | 0.00 | 0.00 | 83 | 1009.5 |
| 20260903062101 | 21 | 105 | 3.2 | 6.4 | 0.00 | 0.00 | 0.00 | 83 | 1009.6 |
| 20260903061607 | 21 | 105 | 1.6 | 4.8 | 0.00 | 0.00 | 0.00 | 83 | 1009.6 |
| 20260903061059 | 21 | 105 | 3.2 | 6.4 | 0.00 | 0.00 | 0.00 | 83 | 1009.7 |
| 20260903060559 | 21 | 98 | 3.2 | 6.4 | 0.00 | 0.00 | 0.00 | 83 | 1009.7 |
| 20260903060059 | 21 | 96 | 3.2 | 6.4 | 0.00 | 0.00 | 0.00 | 82 | 1009.7 |
| 20260903055559 | 21 | 75 | 3.2 | 6.4 | 0.00 | 0.00 | 0.00 | 82 | 1009.7 |
| 20260903055058 | 21 | 65 | 3.2 | 6.4 | 0.00 | 0.00 | 0.00 | 83 | 1009.7 |
| 20260903054558 | 21 | 97 | 1.6 | 6.4 | 0.00 | 0.00 | 0.00 | 83 | 1009.7 |
| 20260903054059 | 21 | 65 | 3.2 | 6.4 | 0.00 | 0.00 | 0.00 | 83 | 1009.8 |
| 20260903053559 | 21 | 84 | 3.2 | 6.4 | 0.00 | 0.00 | 0.00 | 82 | 1009.8 |
| 20260903053055 | 21 | 79 | 1.6 | 4.8 | 0.00 | 0.00 | 0.00 | 82 | 1009.8 |
| 20260903052555 | 22 | 91 | 1.6 | 6.4 | 0.00 | 0.00 | 0.00 | 81 | 1009.7 |
| 20260903052055 | 22 | 101 | 3.2 | 6.4 | 0.00 | 0.00 | 0.00 | 81 | 1009.7 |
| 20260903051553 | 22 | 89 | 0.0 | 4.8 | 0.00 | 0.00 | 0.00 | 81 | 1009.8 |
| 20260903051051 | 22 | 81 | 1.6 | 6.4 | 0.00 | 0.00 | 0.00 | 81 | 1009.9 |
| 20260903050555 | 22 | 79 | 0.0 | 6.4 | 0.00 | 0.00 | 0.00 | 81 | 1010.0 |
| 20260903050050 | 22 | 67 | 1.6 | 6.4 | 0.00 | 0.00 | 0.00 | 81 | 1009.9 |
| 20260903045549 | 22 | 89 | 3.2 | 6.4 | 0.00 | 0.00 | 0.00 | 80 | 1010.0 |
| 20260903045048 | 22 | 111 | 1.6 | 6.4 | 0.00 | 0.00 | 0.00 | 81 | 1009.9 |
| 20260903044548 | 22 | 60 | 0.0 | 6.4 | 0.00 | 0.00 | 0.00 | 81 | 1010.0 |
| 20260903044048 | 22 | 73 | 0.0 | 6.4 | 0.00 | 0.00 | 0.00 | 80 | 1010.0 |
| 20260903043549 | 22 | 82 | 1.6 | 4.8 | 0.00 | 0.00 | 0.00 | 81 | 1010.0 |
| 20260903043048 | 22 | 79 | 0.0 | 4.8 | 0.00 | 0.00 | 0.00 | 81 | 1010.0 |
| 20260903042550 | 21 | 75 | 0.0 | 3.2 | 0.00 | 0.00 | 0.00 | 82 | 1010.0 |
| 20260903042051 | 21 | 47 | 0.0 | 3.2 | 0.00 | 0.00 | 0.00 | 82 | 1010.1 |
| 20260903041548 | 21 | 86 | 0.0 | 3.2 | 0.00 | 0.00 | 0.00 | 83 | 1010.2 |
| 20260903041049 | 21 | 90 | 0.0 | 3.2 | 0.00 | 0.00 | 0.00 | 83 | 1010.2 |
| 20260903040550 | 21 | 82 | 0.0 | 4.8 | 0.00 | 0.00 | 0.00 | 83 | 1010.2 |
| 20260903040048 | 21 | 77 | 1.6 | 4.8 | 0.00 | 0.00 | 0.00 | 83 | 1010.2 |
| 20260903035546 | 21 | 78 | 3.2 | 6.4 | 0.00 | 0.00 | 0.00 | 83 | 1010.2 |
| 20260903035049 | 21 | 82 | 0.0 | 3.2 | 0.00 | 0.00 | 0.00 | 82 | 1010.1 |
| 20260903034555 | 21 | 56 | 0.0 | 3.2 | 0.00 | 0.00 | 0.00 | 82 | 1010.2 |
| 20260903034046 | 21 | 77 | 0.0 | 3.2 | 0.00 | 0.00 | 0.00 | 82 | 1010.2 |
| 20260903033548 | 22 | 82 | 1.6 | 3.2 | 0.00 | 0.00 | 0.00 | 81 | 1010.2 |
| 20260903033046 | 22 | 82 | 0.0 | 3.2 | 0.00 | 0.00 | 0.00 | 80 | 1010.2 |
| 20260903032547 | 22 | 86 | 0.0 | 3.2 | 0.00 | 0.00 | 0.00 | 79 | 1010.2 |
| 20260903032043 | 22 | 97 | 0.0 | 6.4 | 0.00 | 0.00 | 0.00 | 78 | 1010.2 |
| 20260903031547 | 22 | 90 | 0.0 | 6.4 | 0.00 | 0.00 | 0.00 | 77 | 1010.1 |
| 20260903031044 | 22 | 94 | 1.6 | 4.8 | 0.00 | 0.00 | 0.00 | 77 | 1010.2 |
| 20260903030546 | 22 | 98 | 1.6 | 4.8 | 0.00 | 0.00 | 0.00 | 77 | 1010.1 |
| 20260903030043 | 22 | 85 | 0.0 | 4.8 | 0.00 | 0.00 | 0.00 | 76 | 1010.2 |
| 20260903025543 | 22 | 78 | 1.6 | 6.4 | 0.00 | 0.00 | 0.00 | 77 | 1010.3 |
| 20260903025044 | 22 | 79 | 1.6 | 4.8 | 0.00 | 0.00 | 0.00 | 78 | 1010.3 |
| 20260903024541 | 22 | 85 | 0.0 | 3.2 | 0.00 | 0.00 | 0.00 | 78 | 1010.2 |
| 20260903024041 | 22 | 82 | 0.0 | 3.2 | 0.00 | 0.00 | 0.00 | 77 | 1010.2 |
| 20260903023545 | 22 | 81 | 0.0 | 3.2 | 0.00 | 0.00 | 0.00 | 77 | 1010.2 |
| 20260903023040 | 23 | 72 | 0.0 | 4.8 | 0.00 | 0.00 | 0.00 | 76 | 1010.1 |
| 20260903022539 | 23 | 97 | 1.6 | 4.8 | 0.00 | 0.00 | 0.00 | 76 | 1010.1 |
| 20260903022041 | 23 | 86 | 0.0 | 3.2 | 0.00 | 0.00 | 0.00 | 75 | 1010.2 |
| 20260903021538 | 23 | 92 | 0.0 | 1.6 | 0.00 | 0.00 | 0.00 | 75 | 1010.1 |
| 20260903021038 | 23 | 97 | 0.0 | 3.2 | 0.00 | 0.00 | 0.00 | 74 | 1010.1 |
| 20260903020540 | 23 | 91 | 0.0 | 4.8 | 0.00 | 0.00 | 0.00 | 74 | 1010.1 |
| 20260903020050 | 23 | 93 | 1.6 | 4.8 | 0.00 | 0.00 | 0.00 | 74 | 1010.0 |
| 20260903015639 | 23 | 96 | 0.0 | 3.2 | 0.00 | 0.00 | 0.00 | 76 | 1010.0 |
| 20260903015040 | 23 | 85 | 0.0 | 1.6 | 0.00 | 0.00 | 0.00 | 77 | 1010.0 |
| 20260903014536 | 23 | 78 | 0.0 | 1.6 | 0.00 | 0.00 | 0.00 | 76 | 1010.0 |
| 20260903014034 | 23 | 78 | 0.0 | 1.6 | 0.00 | 0.00 | 0.00 | 76 | 1009.9 |
| 20260903013535 | 23 | 72 | 0.0 | 1.6 | 0.00 | 0.00 | 0.00 | 74 | 1009.8 |
| 20260903013034 | 24 | 68 | 0.0 | 1.6 | 0.00 | 0.00 | 0.00 | 73 | 1009.8 |
| 20260903012535 | 25 | 69 | 0.0 | 1.6 | 0.00 | 0.00 | 0.00 | 70 | 1009.7 |
| 20260903012036 | 25 | 86 | 0.0 | 1.6 | 0.00 | 0.00 | 0.00 | 68 | 1009.7 |
| 20260903011538 | 25 | 95 | 0.0 | 1.6 | 0.00 | 0.00 | 0.00 | 68 | 1009.7 |
| 20260903011032 | 25 | 89 | 0.0 | 3.2 | 0.00 | 0.00 | 0.00 | 67 | 1009.6 |
| 20260903010532 | 25 | 89 | 0.0 | 3.2 | 0.00 | 0.00 | 0.00 | 67 | 1009.6 |
| 20260903010031 | 25 | 103 | 0.0 | 3.2 | 0.00 | 0.00 | 0.00 | 66 | 1009.5 |
| 20260903005531 | 25 | 86 | 0.0 | 3.2 | 0.00 | 0.00 | 0.00 | 66 | 1009.5 |
| 20260903005032 | 26 | 111 | 0.0 | 1.6 | 0.00 | 0.00 | 0.00 | 65 | 1009.5 |
| 20260903004530 | 26 | 101 | 0.0 | 1.6 | 0.00 | 0.00 | 0.00 | 64 | 1009.5 |
| 20260903004030 | 26 | 101 | 0.0 | 1.6 | 0.00 | 0.00 | 0.00 | 63 | 1009.4 |
| 20260903003528 | 27 | 105 | 0.0 | 1.6 | 0.00 | 0.00 | 0.00 | 62 | 1009.4 |
| 20260903003028 | 28 | 64 | 0.0 | 1.6 | 0.00 | 0.00 | 0.00 | 61 | 1009.5 |
| 20260903002630 | 29 | 67 | 0.0 | 1.6 | 0.00 | 0.00 | 0.00 | 56 | 1009.6 |
| 20260903002028 | 30 | 152 | 0.0 | 0.0 | 0.00 | 0.00 | 0.00 | 51 | 1009.6 |
| 20260903001527 | 31 | 152 | 0.0 | 1.6 | 0.00 | 0.00 | 0.00 | 51 | 1009.5 |
| 20260903001033 | 31 | 127 | 0.0 | 1.6 | 0.00 | 0.00 | 0.00 | 51 | 1009.4 |
| 20260903000527 | 31 | 166 | 0.0 | 1.6 | 0.00 | 0.00 | 0.00 | 51 | 1009.4 |
| 20260903000027 | 31 | 122 | 0.0 | 1.6 | 0.00 | 0.00 | 0.00 | 51 | 1009.4 |
| 20260902235526 | 31 | 146 | 0.0 | 1.6 | 0.00 | 0.00 | 0.00 | 50 | 1009.6 |
| 20260902235025 | 31 | 175 | 0.0 | 3.2 | 0.00 | 0.00 | 0.00 | 51 | 1009.4 |
| 20260902234525 | 31 | 118 | 0.0 | 3.2 | 0.00 | 0.00 | 0.00 | 50 | 1009.4 |
| 20260902234025 | 31 | 111 | 0.0 | 4.8 | 0.00 | 0.00 | 0.00 | 49 | 1009.4 |
| 20260902233525 | 31 | 124 | 0.0 | 6.4 | 0.00 | 0.00 | 0.00 | 50 | 1009.5 |
| 20260902233025 | 31 | 204 | 0.0 | 3.2 | 0.00 | 0.00 | 0.00 | 49 | 1009.4 |
| 20260902232525 | 31 | 179 | 0.0 | 1.6 | 0.00 | 0.00 | 0.00 | 50 | 1009.4 |
| 20260902232026 | 30 | 123 | 0.0 | 3.2 | 0.00 | 0.00 | 0.00 | 51 | 1009.4 |
| 20260902231523 | 30 | 105 | 0.0 | 4.8 | 0.00 | 0.00 | 0.00 | 50 | 1009.3 |
| 20260902231022 | 30 | 68 | 0.0 | 8.0 | 0.00 | 0.00 | 0.00 | 49 | 1009.4 |
| 20260902230523 | 30 | 99 | 3.2 | 8.0 | 0.00 | 0.00 | 0.00 | 48 | 1009.5 |
| 20260902230023 | 30 | 118 | 0.0 | 6.4 | 0.00 | 0.00 | 0.00 | 50 | 1009.5 |
| 20260902225624 | 30 | 235 | 0.0 | 8.0 | 0.00 | 0.00 | 0.00 | 51 | 1009.5 |
| 20260902225023 | 30 | 110 | 0.0 | 6.4 | 0.00 | 0.00 | 0.00 | 51 | 1009.5 |
| 20260902224520 | 30 | 95 | 0.0 | 6.4 | 0.00 | 0.00 | 0.00 | 51 | 1009.5 |
| 20260902224019 | 30 | 110 | 1.6 | 6.4 | 0.00 | 0.00 | 0.00 | 48 | 1009.5 |
| 20260902223519 | 31 | 105 | 0.0 | 4.8 | 0.00 | 0.00 | 0.00 | 48 | 1009.6 |
| 20260902223027 | 31 | 53 | 0.0 | 3.2 | 0.00 | 0.00 | 0.00 | 47 | 1009.7 |
| 20260902222518 | 31 | 125 | 0.0 | 4.8 | 0.00 | 0.00 | 0.00 | 46 | 1009.6 |
| 20260902222017 | 31 | 61 | 0.0 | 4.8 | 0.00 | 0.00 | 0.00 | 47 | 1009.7 |
| 20260902221518 | 31 | 335 | 0.0 | 3.2 | 0.00 | 0.00 | 0.00 | 49 | 1009.6 |
| 20260902221015 | 31 | 110 | 0.0 | 4.8 | 0.00 | 0.00 | 0.00 | 50 | 1009.6 |
| 20260902220514 | 30 | 259 | 0.0 | 8.0 | 0.00 | 0.00 | 0.00 | 51 | 1009.7 |
| 20260902220020 | 29 | 253 | 0.0 | 8.0 | 0.00 | 0.00 | 0.00 | 53 | 1009.7 |
| 20260902215514 | 29 | 111 | 3.2 | 6.4 | 0.00 | 0.00 | 0.00 | 53 | 1009.7 |
| 20260902215013 | 28 | 64 | 0.0 | 8.0 | 0.00 | 0.00 | 0.00 | 54 | 1009.7 |
| 20260902214513 | 28 | 92 | 1.6 | 9.7 | 0.00 | 0.00 | 0.00 | 53 | 1009.8 |
| 20260902214012 | 28 | 96 | 1.6 | 9.7 | 0.00 | 0.00 | 0.00 | 53 | 1009.8 |
| 20260902213511 | 29 | 114 | 3.2 | 9.7 | 0.00 | 0.00 | 0.00 | 53 | 1009.9 |
| 20260902213011 | 29 | 120 | 1.6 | 8.0 | 0.00 | 0.00 | 0.00 | 53 | 1009.9 |
| 20260902212511 | 28 | 119 | 1.6 | 6.4 | 0.00 | 0.00 | 0.00 | 53 | 1009.9 |
| 20260902212011 | 28 | 88 | 1.6 | 6.4 | 0.00 | 0.00 | 0.00 | 53 | 1010.0 |
| 20260902211510 | 28 | 114 | 1.6 | 8.0 | 0.00 | 0.00 | 0.00 | 54 | 1010.0 |
| 20260902211011 | 28 | 110 | 3.2 | 9.7 | 0.00 | 0.00 | 0.00 | 53 | 1010.1 |
| 20260902210509 | 28 | 71 | 4.8 | 8.0 | 0.00 | 0.00 | 0.00 | 53 | 1010.1 |
| 20260902210010 | 29 | 91 | 4.8 | 9.7 | 0.00 | 0.00 | 0.00 | 52 | 1010.1 |
| 20260902205510 | 29 | 98 | 4.8 | 9.7 | 0.00 | 0.00 | 0.00 | 52 | 1010.2 |
| 20260902205008 | 29 | 156 | 1.6 | 9.7 | 0.00 | 0.00 | 0.00 | 50 | 1010.2 |
| 20260902204509 | 30 | 84 | 3.2 | 8.0 | 0.00 | 0.00 | 0.00 | 50 | 1010.1 |
| 20260902204006 | 30 | 158 | 1.6 | 8.0 | 0.00 | 0.00 | 0.00 | 50 | 1010.1 |
| 20260902203508 | 30 | 99 | 3.2 | 6.4 | 0.00 | 0.00 | 0.00 | 49 | 1010.3 |
| 20260902203006 | 30 | 153 | 0.0 | 4.8 | 0.00 | 0.00 | 0.00 | 51 | 1010.3 |
| 20260902202505 | 30 | 20 | 0.0 | 8.0 | 0.00 | 0.00 | 0.00 | 50 | 1010.3 |
| 20260902202005 | 30 | 219 | 1.6 | 9.7 | 0.00 | 0.00 | 0.00 | 48 | 1010.3 |
| 20260902201511 | 30 | 172 | 0.0 | 9.7 | 0.00 | 0.00 | 0.00 | 54 | 1010.3 |
| 20260902201002 | 30 | 295 | 0.0 | 9.7 | 0.00 | 0.00 | 0.00 | 54 | 1010.4 |
| 20260902200501 | 29 | 72 | 1.6 | 9.7 | 0.00 | 0.00 | 0.00 | 56 | 1010.5 |
| 20260902200101 | 29 | 127 | 3.2 | 8.0 | 0.00 | 0.00 | 0.00 | 55 | 1010.4 |
| 20260902195559 | 28 | 124 | 0.0 | 9.7 | 0.00 | 0.00 | 0.00 | 56 | 1010.4 |
| 20260902195057 | 28 | 223 | 1.6 | 12.9 | 0.00 | 0.00 | 0.00 | 57 | 1010.4 |
| 20260902194602 | 28 | 117 | 3.2 | 12.9 | 0.00 | 0.00 | 0.00 | 57 | 1010.5 |
| 20260902194057 | 28 | 113 | 8.0 | 14.5 | 0.00 | 0.00 | 0.00 | 57 | 1010.5 |
| 20260902193556 | 28 | 68 | 6.4 | 14.5 | 0.00 | 0.00 | 0.00 | 56 | 1010.5 |
| 20260902193059 | 28 | 77 | 0.0 | 9.7 | 0.00 | 0.00 | 0.00 | 58 | 1010.7 |
| 20260902192555 | 28 | 56 | 3.2 | 9.7 | 0.00 | 0.00 | 0.00 | 57 | 1010.7 |
| 20260902192056 | 28 | 65 | 1.6 | 8.0 | 0.00 | 0.00 | 0.00 | 57 | 1010.7 |
| 20260902191554 | 28 | 115 | 0.0 | 6.4 | 0.00 | 0.00 | 0.00 | 59 | 1010.8 |
| 20260902191052 | 28 | 122 | 0.0 | 6.4 | 0.00 | 0.00 | 0.00 | 59 | 1010.7 |
| 20260902190551 | 27 | 109 | 1.6 | 6.4 | 0.00 | 0.00 | 0.00 | 60 | 1010.8 |
| 20260902190050 | 27 | 58 | 0.0 | 6.4 | 0.00 | 0.00 | 0.00 | 58 | 1010.9 |
| 20260902185550 | 27 | 67 | 0.0 | 8.0 | 0.00 | 0.00 | 0.00 | 60 | 1010.9 |
| 20260902185051 | 27 | 93 | 3.2 | 12.9 | 0.00 | 0.00 | 0.00 | 60 | 1011.1 |
| 20260902184551 | 27 | 69 | 4.8 | 12.9 | 0.00 | 0.00 | 0.00 | 60 | 1011.1 |
| 20260902184051 | 27 | 34 | 6.4 | 11.3 | 0.00 | 0.00 | 0.00 | 58 | 1011.2 |
| 20260902183547 | 27 | 73 | 1.6 | 9.7 | 0.00 | 0.00 | 0.00 | 60 | 1011.3 |
| 20260902183047 | 27 | 174 | 0.0 | 8.0 | 0.00 | 0.00 | 0.00 | 60 | 1011.3 |
| 20260902182545 | 27 | 96 | 4.8 | 8.0 | 0.00 | 0.00 | 0.00 | 62 | 1011.4 |
| 20260902182045 | 26 | 61 | 0.0 | 8.0 | 0.00 | 0.00 | 0.00 | 61 | 1011.4 |
| 20260902181553 | 26 | 18 | 0.0 | 8.0 | 0.00 | 0.00 | 0.00 | 62 | 1011.4 |
| 20260902181046 | 26 | 101 | 1.6 | 11.3 | 0.00 | 0.00 | 0.00 | 63 | 1011.4 |
| 20260902180545 | 26 | 173 | 3.2 | 14.5 | 0.00 | 0.00 | 0.00 | 60 | 1011.4 |
| 20260902180045 | 26 | 115 | 6.4 | 14.5 | 0.00 | 0.00 | 0.00 | 64 | 1011.4 |
| 20260902175544 | 26 | 117 | 6.4 | 12.9 | 0.00 | 0.00 | 0.00 | 59 | 1011.4 |
| 20260902175047 | 27 | 84 | 4.8 | 9.7 | 0.00 | 0.00 | 0.00 | 60 | 1011.5 |
| 20260902174547 | 27 | 78 | 3.2 | 9.7 | 0.00 | 0.00 | 0.00 | 61 | 1011.6 |
| 20260902174044 | 27 | 122 | 0.0 | 8.0 | 0.00 | 0.00 | 0.00 | 60 | 1011.6 |
| 20260902173543 | 27 | 101 | 1.6 | 8.0 | 0.00 | 0.00 | 0.00 | 60 | 1011.7 |
| 20260902173046 | 27 | 214 | 0.0 | 9.7 | 0.00 | 0.00 | 0.00 | 59 | 1011.7 |
| 20260902172541 | 27 | 72 | 1.6 | 9.7 | 0.00 | 0.00 | 0.00 | 64 | 1011.8 |
| 20260902172040 | 27 | 82 | 1.6 | 8.0 | 0.00 | 0.00 | 0.00 | 64 | 1011.8 |
| 20260902171548 | 26 | 160 | 0.0 | 8.0 | 0.00 | 0.00 | 0.00 | 65 | 1011.8 |
| 20260902171038 | 26 | 109 | 1.6 | 8.0 | 0.00 | 0.00 | 0.00 | 66 | 1011.8 |
| 20260902170536 | 26 | 85 | 0.0 | 6.4 | 0.00 | 0.00 | 0.00 | 70 | 1011.8 |
| 20260902170035 | 25 | 187 | 0.0 | 4.8 | 0.00 | 0.00 | 0.00 | 72 | 1012.1 |
| 20260902165534 | 25 | 103 | 1.6 | 8.0 | 0.00 | 0.00 | 0.00 | 71 | 1012.2 |
| 20260902165033 | 25 | 92 | 1.6 | 8.0 | 0.00 | 0.00 | 0.00 | 71 | 1012.1 |
| 20260902164533 | 25 | 67 | 3.2 | 8.0 | 0.00 | 0.00 | 0.00 | 69 | 1012.1 |
| 20260902164030 | 24 | 50 | 0.0 | 8.0 | 0.00 | 0.00 | 0.00 | 70 | 1012.0 |
| 20260902163531 | 24 | 103 | 4.8 | 9.7 | 0.00 | 0.00 | 0.00 | 69 | 1011.9 |
| 20260902163030 | 24 | 82 | 4.8 | 9.7 | 0.00 | 0.00 | 0.00 | 70 | 1011.9 |
| 20260902162528 | 24 | 110 | 4.8 | 9.7 | 0.00 | 0.00 | 0.00 | 71 | 1011.9 |
| 20260902162028 | 24 | 118 | 0.0 | 4.8 | 0.00 | 0.00 | 0.00 | 72 | 1012.1 |
| 20260902161528 | 24 | 96 | 1.6 | 6.4 | 0.00 | 0.00 | 0.00 | 72 | 1011.9 |
| 20260902161030 | 24 | 110 | 1.6 | 6.4 | 0.00 | 0.00 | 0.00 | 72 | 1012.0 |
| 20260902160527 | 24 | 51 | 0.0 | 9.7 | 0.00 | 0.00 | 0.00 | 71 | 1012.0 |
| 20260902160026 | 24 | 91 | 3.2 | 8.0 | 0.00 | 0.00 | 0.00 | 74 | 1011.9 |
| 20260902155525 | 23 | 20 | 0.0 | 4.8 | 0.00 | 0.00 | 0.00 | 75 | 1012.0 |
| 20260902155025 | 23 | 104 | 0.0 | 4.8 | 0.00 | 0.00 | 0.00 | 75 | 1011.9 |
| 20260902154527 | 23 | 65 | 0.0 | 1.6 | 0.00 | 0.00 | 0.00 | 75 | 1012.0 |
| 20260902154024 | 23 | 50 | 0.0 | 1.6 | 0.00 | 0.00 | 0.00 | 74 | 1012.0 |
| 20260902153523 | 23 | 65 | 0.0 | 1.6 | 0.00 | 0.00 | 0.00 | 78 | 1012.1 |
| 20260902153021 | 23 | 231 | 0.0 | 1.6 | 0.00 | 0.00 | 0.00 | 80 | 1012.1 |
| 20260902152520 | 22 | 298 | 0.0 | 3.2 | 0.00 | 0.00 | 0.00 | 80 | 1012.2 |
| 20260902152020 | 22 | 294 | 0.0 | 4.8 | 0.00 | 0.00 | 0.00 | 81 | 1012.0 |
| 20260902151521 | 22 | 83 | 0.0 | 4.8 | 0.00 | 0.00 | 0.00 | 80 | 1011.7 |
| 20260902151020 | 22 | 77 | 0.0 | 3.2 | 0.00 | 0.00 | 0.00 | 80 | 1011.6 |
| 20260902150520 | 22 | 104 | 0.0 | 4.8 | 0.00 | 0.00 | 0.00 | 79 | 1011.7 |
| 20260902150020 | 22 | 81 | 0.0 | 4.8 | 0.00 | 0.00 | 0.00 | 78 | 1011.7 |
| 20260902145519 | 22 | 92 | 0.0 | 1.6 | 0.00 | 0.00 | 0.00 | 79 | 1011.5 |
| 20260902145038 | 22 | 189 | 0.0 | 3.2 | 0.00 | 0.00 | 0.00 | 80 | 1011.5 |
| 20260902144516 | 22 | 134 | 0.0 | 3.2 | 0.00 | 0.00 | 0.00 | 79 | 1011.7 |
| 20260902144017 | 22 | 175 | 0.0 | 3.2 | 0.00 | 0.00 | 0.00 | 80 | 1012.0 |
| 20260902143516 | 22 | 101 | 0.0 | 4.8 | 0.00 | 0.00 | 0.00 | 80 | 1011.8 |
| 20260902143016 | 22 | 139 | 0.0 | 4.8 | 0.00 | 0.00 | 0.00 | 80 | 1011.8 |
| 20260902142516 | 22 | 187 | 0.0 | 4.8 | 0.00 | 0.00 | 0.00 | 79 | 1011.9 |
| 20260902142016 | 22 | 75 | 0.0 | 6.4 | 0.00 | 0.00 | 0.00 | 80 | 1012.0 |
| 20260902141515 | 22 | 201 | 1.6 | 6.4 | 0.00 | 0.00 | 0.00 | 80 | 1012.0 |
| 20260902141016 | 22 | 122 | 0.0 | 3.2 | 0.00 | 0.00 | 0.00 | 81 | 1012.0 |
| 20260902140514 | 21 | 133 | 0.0 | 3.2 | 0.00 | 0.00 | 0.00 | 82 | 1012.0 |
| 20260902140013 | 21 | 143 | 0.0 | 6.4 | 0.00 | 0.00 | 0.00 | 82 | 1012.0 |
| 20260902135539 | 21 | 105 | 1.6 | 4.8 | 0.00 | 0.00 | 0.00 | 81 | 1011.9 |
| 20260902135008 | 21 | 122 | 0.0 | 4.8 | 0.00 | 0.00 | 0.00 | 83 | 1012.1 |
| 20260902134520 | 21 | 99 | 0.0 | 6.4 | 0.00 | 0.00 | 0.00 | 81 | 1012.1 |
| 20260902134007 | 21 | 210 | 0.0 | 6.4 | 0.00 | 0.00 | 0.00 | 83 | 1012.0 |
| 20260902133505 | 21 | 67 | 0.0 | 3.2 | 0.00 | 0.00 | 0.00 | 83 | 1012.1 |
| 20260902133004 | 20 | 101 | 0.0 | 4.8 | 0.00 | 0.00 | 0.00 | 85 | 1012.3 |
| 20260902132507 | 20 | 88 | 1.6 | 4.8 | 0.00 | 0.00 | 0.00 | 84 | 1012.4 |
| 20260902132003 | 20 | 92 | 0.0 | 3.2 | 0.00 | 0.00 | 0.00 | 86 | 1012.4 |
| 20260902131503 | 20 | 104 | 0.0 | 8.0 | 0.00 | 0.00 | 0.00 | 86 | 1012.2 |
| 20260902131003 | 20 | 158 | 1.6 | 8.0 | 0.00 | 0.00 | 0.00 | 87 | 1012.1 |
| 20260902130503 | 19 | 82 | 0.0 | 6.4 | 0.00 | 0.00 | 0.00 | 89 | 1012.2 |
| 20260902130002 | 18 | 105 | 0.0 | 8.0 | 0.00 | 0.00 | 0.00 | 90 | 1012.2 |
| 20260902125557 | 18 | 94 | 1.6 | 8.0 | 0.00 | 0.00 | 0.00 | 90 | 1012.2 |
| 20260902125057 | 18 | 100 | 1.6 | 4.8 | 0.00 | 0.00 | 0.00 | 93 | 1012.1 |
| 20260902124604 | 17 | 86 | 0.0 | 3.2 | 0.00 | 0.00 | 0.00 | 95 | 1012.1 |
| 20260902124055 | 17 | 105 | 0.0 | 1.6 | 0.00 | 0.00 | 0.00 | 95 | 1012.1 |
| 20260902123629 | 17 | 82 | 0.0 | 4.8 | 0.00 | 0.00 | 0.00 | 94 | 1012.1 |
| 20260902123104 | 17 | 93 | 0.0 | 4.8 | 0.00 | 0.00 | 0.00 | 93 | 1012.0 |
| 20260902122550 | 17 | 64 | 1.6 | 4.8 | 0.00 | 0.00 | 0.00 | 93 | 1012.0 |
| 20260902122049 | 17 | 64 | 0.0 | 4.8 | 0.00 | 0.00 | 0.00 | 93 | 1012.2 |
| 20260902121548 | 17 | 65 | 3.2 | 4.8 | 0.00 | 0.00 | 0.00 | 93 | 1012.1 |
| 20260902121049 | 17 | 75 | 0.0 | 1.6 | 0.00 | 0.00 | 0.00 | 92 | 1012.0 |
| 20260902120530 | 17 | 94 | 0.0 | 1.6 | 0.00 | 0.00 | 0.00 | 92 | 1011.9 |
| 20260902120048 | 17 | 108 | 0.0 | 1.6 | 0.00 | 0.00 | 0.00 | 92 | 1011.9 |
| 20260902115546 | 17 | 94 | 0.0 | 1.6 | 0.00 | 0.00 | 0.00 | 92 | 1011.9 |
| 20260902115046 | 17 | 79 | 0.0 | 1.6 | 0.00 | 0.00 | 0.00 | 91 | 1011.9 |
| 20260902114553 | 17 | 100 | 0.0 | 1.6 | 0.00 | 0.00 | 0.00 | 91 | 1011.9 |
| 20260902114046 | 17 | 89 | 0.0 | 1.6 | 0.00 | 0.00 | 0.00 | 91 | 1011.9 |
| 20260902113546 | 18 | 79 | 0.0 | 1.6 | 0.00 | 0.00 | 0.00 | 91 | 1011.8 |
| 20260902113044 | 18 | 101 | 0.0 | 1.6 | 0.00 | 0.00 | 0.00 | 90 | 1011.9 |
| 20260902112543 | 18 | 93 | 0.0 | 1.6 | 0.00 | 0.00 | 0.00 | 90 | 1011.9 |
| 20260902112046 | 18 | 82 | 0.0 | 1.6 | 0.00 | 0.00 | 0.00 | 90 | 1012.0 |
| 20260902111546 | 18 | 75 | 0.0 | 3.2 | 0.00 | 0.00 | 0.00 | 89 | 1012.2 |
| 20260902111041 | 18 | 77 | 0.0 | 3.2 | 0.00 | 0.00 | 0.00 | 89 | 1012.1 |
| 20260902110540 | 18 | 226 | 0.0 | 1.6 | 0.00 | 0.00 | 0.00 | 89 | 1012.0 |
| 20260902110057 | 18 | 75 | 0.0 | 1.6 | 0.00 | 0.00 | 0.00 | 89 | 1011.9 |
| 20260902105540 | 18 | 77 | 0.0 | 0.0 | 0.00 | 0.00 | 0.00 | 89 | 1012.0 |
| 20260902105039 | 18 | 88 | 0.0 | 1.6 | 0.00 | 0.00 | 0.00 | 88 | 1012.0 |
| 20260902104539 | 18 | 90 | 0.0 | 1.6 | 0.00 | 0.00 | 0.00 | 88 | 1012.1 |
| 20260902104041 | 18 | 79 | 0.0 | 1.6 | 0.00 | 0.00 | 0.00 | 87 | 1012.2 |
| 20260902103638 | 18 | 274 | 0.0 | 4.8 | 0.00 | 0.00 | 0.00 | 87 | 1012.2 |
| 20260902103040 | 18 | 130 | 0.0 | 9.7 | 0.00 | 0.00 | 0.00 | 88 | 1012.2 |
| 20260902102542 | 18 | 177 | 3.2 | 9.7 | 0.00 | 0.00 | 0.00 | 88 | 1012.3 |
| 20260902102038 | 18 | 269 | 0.0 | 8.0 | 0.00 | 0.00 | 0.00 | 88 | 1012.4 |
| 20260902101540 | 18 | 248 | 0.0 | 1.6 | 0.00 | 0.00 | 0.00 | 87 | 1012.5 |
| 20260902101037 | 18 | 278 | 0.0 | 1.6 | 0.00 | 0.00 | 0.00 | 87 | 1012.4 |
| 20260902100541 | 18 | 232 | 0.0 | 1.6 | 0.00 | 0.00 | 0.00 | 86 | 1012.3 |
| 20260902100037 | 18 | 239 | 0.0 | 0.0 | 0.00 | 0.00 | 0.00 | 86 | 1012.4 |
| 20260902095537 | 18 | 239 | 0.0 | 0.0 | 0.00 | 0.00 | 0.00 | 85 | 1012.3 |
| 20260902095034 | 18 | 50 | 0.0 | 0.0 | 0.00 | 0.00 | 0.00 | 85 | 1012.0 |
| 20260902094542 | 18 | 50 | 0.0 | 0.0 | 0.00 | 0.00 | 0.00 | 84 | 1011.8 |
| 20260902094033 | 18 | 50 | 0.0 | 0.0 | 0.00 | 0.00 | 0.00 | 84 | 1011.6 |
| 20260902093532 | 18 | 50 | 0.0 | 4.8 | 0.00 | 0.00 | 0.00 | 84 | 1011.7 |
| 20260902093033 | 18 | 50 | 0.0 | 6.4 | 0.00 | 0.00 | 0.00 | 84 | 1011.6 |
| 20260902092533 | 18 | 58 | 4.8 | 8.0 | 0.00 | 0.00 | 0.00 | 84 | 1011.4 |
| 20260902092036 | 19 | 84 | 0.0 | 8.0 | 0.00 | 0.00 | 0.00 | 83 | 1011.3 |
| 20260902091533 | 19 | 68 | 3.2 | 6.4 | 0.00 | 0.00 | 0.00 | 81 | 1011.1 |
| 20260902091033 | 19 | 60 | 0.0 | 3.2 | 0.00 | 0.00 | 0.00 | 81 | 1011.1 |
| 20260902090533 | 19 | 77 | 0.0 | 4.8 | 0.00 | 0.00 | 0.00 | 81 | 1011.2 |
| 20260902090034 | 19 | 83 | 0.0 | 4.8 | 0.00 | 0.00 | 0.00 | 81 | 1011.1 |
| 20260902085531 | 19 | 96 | 1.6 | 3.2 | 0.00 | 0.00 | 0.00 | 81 | 1011.0 |
| 20260902085030 | 19 | 86 | 0.0 | 4.8 | 0.00 | 0.00 | 0.00 | 81 | 1011.1 |
| 20260902084538 | 19 | 101 | 1.6 | 4.8 | 0.00 | 0.00 | 0.00 | 81 | 1011.1 |
| 20260902084031 | 19 | 95 | 1.6 | 4.8 | 0.00 | 0.00 | 0.00 | 82 | 1011.2 |
| 20260902083531 | 19 | 84 | 0.0 | 6.4 | 0.00 | 0.00 | 0.00 | 81 | 1011.1 |
| 20260902083028 | 19 | 86 | 1.6 | 6.4 | 0.00 | 0.00 | 0.00 | 81 | 1011.5 |
| 20260902082531 | 19 | 97 | 0.0 | 3.2 | 0.00 | 0.00 | 0.00 | 81 | 1011.8 |